This is the latest recevied weather packets stored in our database for station/object KG5APU. If no packets are shown the sender has not sent any weather packets the latest 10 day(s).
| Time | Temp. | Humidity | Pressure | Rain* | Wind** | Luminosity | Snow |
|---|---|---|---|---|---|---|---|
| 1777797009 | 16.11° C | 67% | 1020.5 hPa | 0 mm | - | 0 W/m² | - |
| 1777796409 | 16.11° C | 67% | 1020.7 hPa | 0 mm | - | 0 W/m² | - |
| 1777795807 | 16.11° C | 66% | 1020.8 hPa | 0 mm | - | 0 W/m² | - |
| 1777795206 | 16.67° C | 65% | 1020.9 hPa | 0 mm | - | 0 W/m² | - |
| 1777794605 | 16.67° C | 64% | 1020.8 hPa | 0 mm | - | 0 W/m² | - |
| 1777794001 | 16.11° C | 66% | 1020.6 hPa | 0 mm | - | 0 W/m² | - |
| 1777793397 | 16.11° C | 67% | 1020.8 hPa | 0 mm | - | 0 W/m² | - |
| 1777792791 | 16.11° C | 67% | 1020.9 hPa | 0 mm | - | 0 W/m² | - |
| 1777792189 | 16.11° C | 66% | 1020.8 hPa | 0 mm | - | 0 W/m² | - |
| 1777791585 | 16.11° C | 66% | 1021 hPa | 0 mm | - | 0 W/m² | - |
| 1777790985 | 16.67° C | 65% | 1021.2 hPa | 0 mm | - | 0 W/m² | - |
| 1777790380 | 16.67° C | 64% | 1021 hPa | 0 mm | - | 0 W/m² | - |
| 1777789776 | 16.67° C | 64% | 1020.9 hPa | 0 mm | - | 0 W/m² | - |
| 1777789172 | 16.67° C | 64% | 1021 hPa | 0 mm | - | 0 W/m² | - |
| 1777788570 | 16.67° C | 64% | 1020.9 hPa | 0 mm | - | 0 W/m² | - |
| 1777787966 | 16.67° C | 65% | 1020.8 hPa | 0 mm | - | 0 W/m² | - |
| 1777787362 | 17.22° C | 66% | 1020.9 hPa | 0 mm | - | 0 W/m² | - |
| 1777786762 | 17.22° C | 66% | 1020.9 hPa | 0 mm | - | 0 W/m² | - |
| 1777786162 | 17.78° C | 64% | 1020.7 hPa | 0 mm | - | 0 W/m² | - |
| 1777785561 | 18.33° C | 61% | 1020.7 hPa | 0 mm | - | 0 W/m² | - |
| 1777784960 | 18.89° C | 59% | 1020.8 hPa | 0 mm | - | 0 W/m² | - |
| 1777784360 | 18.89° C | 59% | 1020.7 hPa | 0 mm | - | 0 W/m² | - |
| 1777783759 | 18.89° C | 60% | 1020.6 hPa | 0 mm | - | 0 W/m² | - |
| 1777783160 | 18.33° C | 62% | 1020.7 hPa | 0 mm | - | 0 W/m² | - |
| 1777782558 | 18.33° C | 65% | 1020.7 hPa | 0 mm | - | 0 W/m² | - |
* Rain latest hour (hover to see other rain measurements)
** Current wind speed in m/s (hover to see current wind gust speed)